This is the latest recevied weather packets stored in our database for station/object IZ3LSV-13. If no packets are shown the sender has not sent any weather packets the latest 1 day(s).
| Time | Temp. | Humidity | Pressure | Rain* | Wind** | Luminosity | Snow |
|---|---|---|---|---|---|---|---|
| 1778090065 | 22.22° C | - | 1104.5 hPa | 0 mm | - | - | - |
| 1778089149 | 22.22° C | - | 1104.5 hPa | 0 mm | - | - | - |
| 1778086400 | 22.78° C | - | 1104.5 hPa | 0 mm | - | - | - |
| 1778086095 | 22.78° C | - | 1104.6 hPa | 0 mm | - | - | - |
| 1778084873 | 22.78° C | - | 1104.7 hPa | 0 mm | - | - | - |
| 1778083957 | 23.33° C | - | 1104.8 hPa | 0 mm | - | - | - |
| 1778083346 | 23.33° C | - | 1104.5 hPa | 0 mm | - | - | - |
| 1778081819 | 22.78° C | - | 1104.6 hPa | 0 mm | - | - | - |
| 1778080903 | 22.78° C | - | 1104.6 hPa | 0 mm | - | - | - |
| 1778080597 | 22.22° C | - | 1104.7 hPa | 0 mm | - | - | - |
| 1778080292 | 22.22° C | - | 1104.8 hPa | 0 mm | - | - | - |
| 1778078154 | 22.78° C | - | 1105.1 hPa | 0 mm | - | - | - |
| 1778077238 | 23.33° C | - | 1104.7 hPa | 0 mm | - | - | - |
| 1778076626 | 23.89° C | - | 1104.7 hPa | 0 mm | - | - | - |
| 1778075710 | 25° C | - | 1104.8 hPa | 0 mm | - | - | - |
| 1778075099 | 26.11° C | - | 1105 hPa | 0 mm | - | - | - |
| 1778072044 | 25° C | - | 1105.5 hPa | 0 mm | - | - | - |
| 1778070517 | 25° C | - | 1105.8 hPa | 0 mm | - | - | - |
| 1778069906 | 25.56° C | - | 1105.8 hPa | 0 mm | - | - | - |
| 1778069295 | 26.11° C | - | 1105.8 hPa | 0 mm | - | - | - |
| 1778068990 | 26.11° C | - | 1105.7 hPa | 0 mm | - | - | - |
| 1778068379 | 26.67° C | - | 1105.8 hPa | 0 mm | - | - | - |
| 1778067768 | 26.11° C | - | 1105.8 hPa | 0 mm | - | - | - |
| 1778067157 | 26.11° C | - | 1105.9 hPa | 0 mm | - | - | - |
| 1778066852 | 25.56° C | - | 1105.8 hPa | 0 mm | - | - | - |
* Rain latest hour (hover to see other rain measurements)
** Current wind speed in m/s (hover to see current wind gust speed)